星链-30947 (STARLINK-30947 )

导读 | 星芒AI

STARLINK-30947 是 SpaceX 星链计划中的一颗低轨通信卫星,属于第 14 批组网发射的星链卫星之一。该卫星于 2023 年 11 月由猎鹰 9 号火箭送入近地轨道,旨在为全球用户提供高速互联网服务。作为星链星座的一部分,STARLINK-30947 运行在约 550 公里的高度,具备先进的激光通信和相控阵天线技术,以提升网络连接的稳定性和覆盖范围。该卫星的部署有助于扩大星链在偏远地区的网络接入能力。

基本信息
目录编号:
58473
目录名称:
STARLINK-30947
国际标识:
2023-186A
轨道中心:
EARTH
卫星名称:
星链-30947
卫星全名:
星链-30947 (STARLINK-30947 )
卫星状态:
在轨 (已飞行698 天)
发射日期:
2023-12-03 UTC
国别 :
美国 (US)
星等 :
--
轨道信息
数据来源 国际轨道数据
星历时间: 2025-10-30T23:08:57+0800
22小时前
查看轨道信息
半长轴: 6937.212km
偏心率: 0.0001626
轨道倾角: 43.005°
近地点辐角 270.065°
升交点赤经 54.470°
平近点角 90.001°
近地点: 557.949km
远地点: 560.205km
周期: 95.838分钟
每日圈数: 15.025377
详细信息
固有亮度:
5
最大亮度:
0.3
卫星平台:
Starlink v2.0 mini
覆盖范围:
全球
运营商:
太空探索技术公司
运营商所在国:
美国
制造商(研发单位):
太空探索技术公司
制造商所在国:
美国
使用方式:
暂无
卫星简介
星链(Starlink)计划是由太空探索技术公司(SpaceX)提出的一个巨型低轨卫星互联网星座项目,计划在2019年至2024年间在太空搭建由约1.2万颗卫星组成的“星链”网络,其中1584颗将部署在地球上空550千米处的近地轨道,并从2020年开始工作。该卫星仍在工作。
2D轨道图
3D轨道图
轨道高度分析图
轨道倾角分析图
轨道综合分析图
查看轨道综合分析图